This is the latest recevied weather packets stored in our database for station/object PY2UEP-1. If no packets are shown the sender has not sent any weather packets the latest 10 day(s).
| Time | Temp. | Humidity | Pressure | Rain* | Wind** | Luminosity | Snow |
|---|---|---|---|---|---|---|---|
| 1787675106 | 20.56° C | 71% | 1019.4 hPa | 0 mm | - | - | - |
| 1787674807 | 21.11° C | 70% | 1019.2 hPa | 0 mm | - | - | - |
| 1787674506 | 21.67° C | 69% | 1019.6 hPa | 0 mm | - | - | - |
| 1787674206 | 21.67° C | 69% | 1019.4 hPa | 0 mm | - | - | - |
| 1787673906 | 21.67° C | 68% | 1019.1 hPa | 0 mm | - | - | - |
| 1787673606 | 21.67° C | 67% | 1019.2 hPa | 0 mm | - | - | - |
| 1787673307 | 21.67° C | 65% | 1019.4 hPa | 0 mm | - | - | - |
| 1787673007 | 22.22° C | 64% | 1019.4 hPa | 0 mm | - | - | - |
| 1787672406 | 22.22° C | 63% | 1019.6 hPa | 0 mm | - | - | - |
| 1787672106 | 22.22° C | 62% | 1019.8 hPa | 0 mm | - | - | - |
| 1787671806 | 22.22° C | 63% | 1019.9 hPa | 0 mm | - | - | - |
| 1787671506 | 21.67° C | 64% | 1020.2 hPa | 0 mm | - | - | - |
| 1787671206 | 21.67° C | 64% | 1020.2 hPa | 0 mm | - | - | - |
| 1787670906 | 21.67° C | 64% | 1020.2 hPa | 0 mm | - | - | - |
| 1787670606 | 21.11° C | 65% | 1019.9 hPa | 0 mm | - | - | - |
| 1787670306 | 21.11° C | 66% | 1020.2 hPa | 0 mm | - | - | - |
| 1787670006 | 21.11° C | 66% | 1019.9 hPa | 0 mm | - | - | - |
| 1787669706 | 21.11° C | 66% | 1020.3 hPa | 0 mm | - | - | - |
| 1787669406 | 21.11° C | 66% | 1020.4 hPa | 0 mm | - | - | - |
| 1787669106 | 21.11° C | 65% | 1020.4 hPa | 0 mm | - | - | - |
| 1787668806 | 21.11° C | 66% | 1020.5 hPa | 0 mm | - | - | - |
| 1787668506 | 20.56° C | 66% | 1020.5 hPa | 0 mm | - | - | - |
| 1787668206 | 20.56° C | 66% | 1020.5 hPa | 0 mm | - | - | - |
| 1787667906 | 21.11° C | 66% | 1020.6 hPa | 0 mm | - | - | - |
| 1787667606 | 21.11° C | 65% | 1020.6 hPa | 0 mm | - | - | - |
* Rain since midnight (hover to see other rain measurements)
** Current wind speed in m/s (hover to see current wind gust speed)